Regional Weather Roundup
Issued by NWS Charleston, SC

Current Version | Previous Version | Graphics & Text | Print | Product List | Glossary On
Versions: 1 2 3 4 5 6 7 8 9 10 11 12 13 14 15 16 17 18 19 20 21 22 23 24 25 26 27 28 29 30 31 32 33 34 35 36 37 38 39 40 41 42 43 44 45 46 47 48 49 50
000
ASUS42 KCHS 032027
RWRCHS

REGIONAL WEATHER ROUNDUP
NATIONAL WEATHER SERVICE CHARLESTON SC
400 PM EDT FRI JUL 03 2015

NOTE: "FAIR" INDICATES FEW OR NO CLOUDS BELOW 12,000 FEET WITH NO
SIGNIFICANT WEATHER AND/OR OBSTRUCTIONS TO VISIBILITY.

NOT ALL STATIONS ARE QUALITY CONTROLLED BY THE NATIONAL
WEATHER SERVICE. USE DATA WITH CAUTION...ESPECIALLY
DEWPOINT OBSERVATIONS.

SCZ027-030-031-034>040-042>050-032100-
...SOUTHEAST SOUTH CAROLINA...

CITY           SKY/WX    TMP DP  RH WIND       PRES   REMARKS
N CHARLESTON   CLOUDY    72  70  94 SW7       30.00F
WATERFRONT PAR   N/A     72  70  93 W6        30.01R
MOUNT PLEASANT LGT RAIN  72  70  94 SW5       30.02F
JOHNS ISLAND   DRIZZLE   73  70  88 CALM      30.03R
PINOPOLIS      NOT AVBL
MONCKS CORNER  LGT RAIN  73  70  88 SW7       29.99S
SUMMERVILLE    FAIR      72  72 100 S3        30.00F
BEAUFORT MCAS  PTSUNNY   81  70  69 W9G18     30.00F
BEAUFORT ARPT  FAIR      86  70  58 W15G23    30.01R HX  90
HILTON HEAD IS MOSUNNY   82  72  69 W9G20     30.01S
WALTERBORO     CLOUDY    73  70  88 W8        29.99F
ALLENDALE      FAIR      77  72  83 VRB7      29.98F

...SOUTHERN MIDLANDS AND PEE DEE...

CITY           SKY/WX    TMP DP  RH WIND       PRES   REMARKS
GEORGETOWN     NOT AVBL
KINGSTREE      NOT AVBL
ORANGEBURG     CLOUDY    75  69  81 SW9       29.97F
BARNWELL       FAIR      82  73  74 W12G17    29.98F
AIKEN          NOT AVBL
MANNING        LGT RAIN  75  70  83 SW10      29.96S
COLUMBIA       CLOUDY    81  68  64 SW13      29.94F
SUMTER         CLOUDY    82  69  64 W14       29.92F
FLORENCE       PTSUNNY   85  72  65 SW12      29.92F HX  91
MYRTLE BEACH   TSTM      82  75  78 S16       29.95F
N MYRTLE BEACH MOSUNNY   84  75  74 SW20      29.94F HX  92

$$

GAZ063-065-086>088-099>101-113>116-118-119-134>141-150-032100-
...SOUTHEAST GEORGIA...

CITY           SKY/WX    TMP DP  RH WIND       PRES   REMARKS
SAVANNAH ARPT  PTSUNNY   93  64  38 W20G28    30.00S HX  94
HUNTER AAF     SUNNY     95  70  43 SW14G22   29.97F HX 101
FORT STEWART   SUNNY     93  67  41 SW14G21   29.99F HX  96
STATESBORO     NOT AVBL
SYLVANIA       MOCLDY    81  71  70 NW12      30.01F
CLAXTON        FAIR      90  72  55 N6        30.00S HX  96

...CSRA...CENTRAL AND FAR SOUTHEAST GEORGIA...

CITY           SKY/WX    TMP DP  RH WIND       PRES   REMARKS
THOMSON        CLOUDY    78  74  86 W8        30.04S
AUGUSTA-BUSH   CLOUDY    78  70  76 SW8       29.97F
AUGUSTA-DANIEL CLOUDY    79  70  74 VRB7      29.99F
SWAINSBORO     FAIR      86  70  58 NW8       30.01F HX  90
VIDALIA        MOSUNNY   91  68  46 SW14      30.00F HX  95
EASTMAN        FAIR      93  69  44 W9G17     30.03S HX  98
HAZLEHURST     FAIR      91  71  50 W3        30.01F HX  97
ALMA           SUNNY     90  67  46 W12       30.03F HX  93
WAYCROSS       MOSUNNY   94  76  55 W10       30.02F HX 107
JESUP          FAIR      97  66  36 W12G17    30.02F HX 100
BAXLEY         FAIR      91  70  49 W9        30.01F HX  97
BRUNSWICK      SUNNY     93  70  46 W8        30.02F HX  99
SAINT SIMONS   SUNNY     93  69  45 W10       30.02F HX  98

$$

SCZ027-028-034-036>038-045-046-048>050-GAZ119-141-032100-
...LAKE AND SUPPLEMENTAL COASTAL OBSERVATIONS...

STATION/POSITION TIME  TEMP    WIND        PRES    WAVE   SWELL
                       AIR SEA DIR/SP/G            HT/PER HT/PER/DIR
                 (UTC) (F)     (DEG/KT/KT) (MB)    (FT/S) (FT/S/D)
UPR LAKE MARION  NOT AVBL
WINYAH BAY       1900   85     210/ 13     1013.0F
LAKE MURRAY      2000   77     250/ 11/ 15 1013.2F
ACE BASIN NERRS  1900   85     180/  7     1017.0R
FORT PULASKI     2000   91 84  240/  8/ 11 1016.1F
SAPELO ISLAND    2000   91     240/ 13     1016.0F

$$

ANZ835-935-AMZ111-154-330-350-352-354-370-450-454-472-032100-
...C-MAN AND BUOY OBSERVATIONS...

STATION/POSITION TIME  TEMP    WIND        PRES    WAVE   SWELL
                       AIR SEA DIR/SP/G            HT/PER HT/PER/DIR
                 (UTC) (F)     (DEG/KT/KT) (MB)    (FT/S) (FT/S/D)
BUOY 41004       1950   81 82  220/ 19/ 23 1015.4S   5/ 5   2/ 9
BUOY 41008       1950   80 80  190/ 12/ 14 1016.9F   2/ 9   2/110/ 9
FOLLY BEACH CMAN 2000   71     250/  5/  5 1016.6R
CAPERS NEARSHORE 1908   82     220/ 17/ 23 1015.1F
FRIPP NEARSHORE  NOT AVBL


STATION/POSITION TIME  TEMP    WIND        PRES    WAVE   SWELL
                       AIR SEA DIR/SP/G            HT/PER HT/PER/DIR
                 (UTC) (F)     (DEG/KT/KT) (MB)    (FT/S) (FT/S/D)
5E ST. MARYS GA  1921      79                N/A     2/ 9
FRYING PAN BUOY  1950   81 80  210/ 16/ 19 1015.0F   5/ 6   2/150/11
BUOY 41025       1950   80 81  220/ 12/ 14 1014.7F   5/ 7   3/180/ 7
CAPE LOOKOUT NC  2000   81     220/ 11/ 13 1013.9F
BUOY 41002       1950   81 81  240/ 12/ 16 1018.6F   6/ 7   5/250/ 7
BUOY 41010       1920   83 85  140/  2/  8 1019.9F
ST AUGUSTINE FL  2000   78 77  140/  8/  9 1018.4F


$$


USA.gov is the U.S. government's official web portal to all federal, state and local government web resources and services.